Regional Weather Roundup
Issued by NWS

Home | Current Version | Previous Version | Text Only | Print | Product List | Glossary On
Versions: 1 2 3 4 5 6 7 8 9 10 11 12 13 14 15 16 17 18 19 20 21 22 23 24 25 26 27 28 29 30 31 32 33 34 35 36 37 38 39 40 41 42 43 44 45 46 47 48 49 50
000
ASUS43 KDMX 300907
RWRIA

WEATHER ROUNDUP FOR IOWA
NATIONAL WEATHER SERVICE DES MOINES IA
400 AM CDT SAT MAY 30 2015

NOTE: "FAIR" INDICATES FEW OR NO CLOUDS BELOW 12,000 FEET WITH NO
SIGNIFICANT WEATHER AND/OR OBSTRUCTIONS TO VISIBILITY.

* - THESE STATIONS ARE NOT NWS STATIONS...THUS NOT UNDER NWS
QUALITY CONTROL.  THEY ALSO DO NOT REPORT WEATHER SUCH
AS PRECIPITATION OR FOG.

IAZ001>003-012>014-020>022-031>034-043>046-301000-
   NORTHWEST IOWA

CITY           SKY/WX    TMP DP  RH WIND       PRES   REMARKS
CARROLL *      CLOUDY    52  52 100 N14G22    30.07R FOG
CHEROKEE *     CLOUDY    52  46  82 N14G23    30.10F
DENISON *      CLOUDY    50  50 100 N9        30.07F FOG
LE MARS *      CLOUDY    50  45  81 N14G21    30.15S
ORANGE CITY *  CLOUDY    46  43  87 N10G18    30.13S
SHELDON *      MOCLDY    48  46  93 N15       30.13R
SIOUX CITY     CLOUDY    52  44  74 N12       30.14S
SPENCER        CLOUDY    51  45  79 N18       30.10S
STORM LAKE *   CLOUDY    52  46  82 N18G26    30.09F
$$

IAZ055>058-069>071-079>083-090>094-301000-
   SOUTHWEST IOWA

CITY           SKY/WX    TMP DP  RH WIND       PRES   REMARKS
ATLANTIC *     CLOUDY    54  52  94 N14G21    30.06R
AUDUBON *      CLOUDY    52  48  87 NW12      30.07S FOG
CLARINDA *     CLOUDY    55  54  94 N14G25    30.05R
COUNCIL BLFS * CLOUDY    50  50 100 N15G21    30.09S
CRESTON *      CLOUDY    54  54 100 N18G24    30.01F
HARLAN  *      CLOUDY    52  52 100 N16       30.11S
LAMONI         CLOUDY    60  56  86 N14       29.99R
RED OAK *      CLOUDY    54  52  94 N18       30.06S
SHENANDOAH *   CLOUDY    54  52  94 N15G21    30.08R
$$

IAZ047>049-059>061-072>074-084-301000-
   CENTRAL IOWA

CITY           SKY/WX    TMP DP  RH WIND       PRES   REMARKS
AMES           CLOUDY    57  53  86 N15       30.00R
ANKENY *       CLOUDY    57  55  94 NW12G20   29.99R
CHARITON *     CLOUDY    59  59 100 NW9G16    29.97S
DES MOINES     CLOUDY    58  54  86 N12       29.99R
GRINNELL*      CLOUDY    61  59  94 NW13      29.96R
KNOXVILLE *    CLOUDY    59  57  94 NW13G20   29.95S
MARSHALLTOWN   CLOUDY    59  57  93 N20       29.96R
PELLA *        CLOUDY    61  61 100 NW12      29.97R
PERRY *        CLOUDY    55  52  88 N14       30.02F
$$

IAZ004>006-015-016-023>025-035-036-301000-
   NORTH CENTRAL IOWA

CITY           SKY/WX    TMP DP  RH WIND       PRES   REMARKS
ALGONA *       CLOUDY    52  50  93 N18G25    30.06R
CLARION *      CLOUDY    54  50  87 N20G25    30.02R
ESTHERVILLE    CLOUDY    49  46  90 N21G28    30.09S
FORT DODGE *   CLOUDY    52  48  87 N8        30.05R
MASON CITY     CLOUDY    54  51  90 N18G31    30.03S
FOREST CITY *  CLOUDY    52  50  93 N16G22    30.04S
IOWA FALLS *   CLOUDY    55  54  94 N15G23    30.00R
$$

IAZ007>011-017>019-026>030-037>042-050>054-066-301000-
   NORTHEAST IOWA

CITY           SKY/WX    TMP DP  RH WIND       PRES   REMARKS
CEDAR RAPIDS   CLOUDY    64  64 100 SW6       29.91F
CHARLES CITY * CLOUDY    55  55 100 N17G25    29.99R FOG
CLINTON *      CLOUDY    64  61  88 S6        29.95F
DECORAH *      CLOUDY    59  59 100 N13G21    29.94S
DUBUQUE        CLOUDY    64  62  93 SW7       29.91F
MONTICELLO *   CLOUDY    66  66 100 S5        29.91F
OELWEIN *      CLOUDY    63  61  94 N15G22    29.94S
WATERLOO       CLOUDY    60  57  89 N18       29.94R
$$

IAZ064-065-067-068-078-301000-
   EAST CENTRAL IOWA

CITY           SKY/WX    TMP DP  RH WIND       PRES   REMARKS
DAVENPORT      CLOUDY    66  62  87 S7        29.93F
IOWA CITY      CLOUDY    67  63  87 SW5       29.93F
MT. PLEASANT * CLOUDY    64  64 100 S6        29.93F
MUSCATINE *    MOCLDY    66  64  94 S6        29.93S
QUAD CITIES    CLOUDY    67  63  87 S6        29.92F
$$

IAZ062-063-075>077-085>089-095>099-301000-
   SOUTHEAST IOWA

CITY           SKY/WX    TMP DP  RH WIND       PRES   REMARKS
BURLINGTON     LGT RAIN  65  64  97 S5        29.94F
FAIRFIELD *    CLOUDY    66  63  88 S5        29.93F
FORT MADISON * DRIZZLE   64  64 100 S5        29.95F
KEOKUK *       CLOUDY    64  64 100 CALM      29.94F
OSKALOOSA *    CLOUDY    63  61  94 NW12      29.94R
CENTERVILLE *  CLOUDY    64  64 100 W7        29.96R
OTTUMWA        CLOUDY    64  64 100 SW6       29.93R
WASHINGTON *   MOCLDY    66  64  94 SW5       29.94F
$$

ABBREVIATIONS USED IN REMARKS
   TC - TEMPERATURES IN CELSIUS
  WCI - WIND CHILL INDEX
   HX - HEAT INDEX
  VSB - VISIBILITY
$$



USA.gov is the U.S. government's official web portal to all federal, state and local government web resources and services.